GW4049 Weather Reports


time (UTC)temp
F
wind
direction
speed
knots
gust
knots
rain 1hr
in
rain 24hr
in
rain mn
in
humidity
%
barometer
mb
20260503220908 53 279 3.5 7.0 0.00 0.00 0.00 31 1022.1
20260503220404 53 243 0.9 7.0 0.00 0.00 0.00 29 1022.3
20260503215901 53 290 5.2 7.0 0.00 0.00 0.00 28 1022.3
20260503215358 53 270 2.6 7.8 0.00 0.00 0.00 28 1022.4
20260503214856 53 260 2.6 7.8 0.00 0.00 0.00 29 1022.1
20260503214353 53 252 4.3 5.2 0.00 0.00 0.00 29 1022.3
20260503213850 52 268 0.0 1.7 0.00 0.00 0.00 29 1022.4
20260503213348 53 235 2.6 7.0 0.00 0.00 0.00 29 1022.4
20260503212845 54 269 0.0 0.9 0.00 0.00 0.00 28 1022.8
20260503212343 53 296 2.6 6.1 0.00 0.00 0.00 28 1022.7
20260503211839 54 216 4.3 7.8 0.00 0.00 0.00 29 1022.7
20260503211336 55 326 2.6 6.1 0.00 0.00 0.00 27 1022.5
20260503210831 54 94 3.5 5.2 0.00 0.00 0.00 25 1022.8
20260503210329 55 290 3.5 6.1 0.00 0.00 0.00 25 1022.7
20260503205824 55 290 1.7 2.6 0.00 0.00 0.00 26 1022.9
20260503205321 55 296 0.9 3.5 0.00 0.00 0.00 25 1022.9
20260503204817 54 195 1.7 5.2 0.00 0.00 0.00 26 1023.1
20260503204315 52 264 0.9 5.2 0.00 0.00 0.00 28 1023.3
20260503203812 54 242 3.5 12.2 0.00 0.00 0.00 27 1023.3
20260503203309 53 13 0.9 2.6 0.00 0.00 0.00 28 1023.1
20260503202806 53 253 0.9 5.2 0.00 0.00 0.00 26 1023.3
20260503202304 52 273 1.7 3.5 0.00 0.00 0.00 28 1023.7
20260503201802 52 325 5.2 11.3 0.00 0.00 0.00 28 1023.5
20260503201259 53 346 6.1 7.8 0.00 0.00 0.00 28 1023.3
20260503200756 53 1 6.1 11.3 0.00 0.00 0.00 28 1023.5
20260503200251 53 308 6.1 12.2 0.00 0.00 0.00 28 1023.3
20260503195743 53 267 1.7 7.8 0.00 0.00 0.00 29 1023.3
20260503195240 53 272 0.9 5.2 0.00 0.00 0.00 26 1023.7
20260503194738 53 300 4.3 11.3 0.00 0.00 0.00 27 1023.5
20260503194233 54 259 5.2 9.6 0.00 0.00 0.00 26 1023.5
20260503193729 54 249 2.6 7.8 0.00 0.00 0.00 24 1023.9
20260503193226 53 242 1.7 2.6 0.00 0.00 0.00 26 1023.5
20260503192721 52 217 3.5 5.2 0.00 0.00 0.00 26 1023.7
20260503192217 53 271 2.6 6.1 0.00 0.00 0.00 26 1023.7
20260503191714 52 266 1.7 7.8 0.00 0.00 0.00 29 1023.7
20260503191211 53 291 2.6 3.5 0.00 0.00 0.00 29 1024.0
20260503190708 53 248 5.2 7.8 0.00 0.00 0.00 28 1024.0
20260503190204 52 311 1.7 3.5 0.00 0.00 0.00 27 1024.1
20260503185702 53 294 2.6 8.7 0.00 0.00 0.00 26 1024.4
20260503185156 52 233 4.3 8.7 0.00 0.00 0.00 26 1023.9
20260503184651 53 258 1.7 9.6 0.00 0.00 0.00 28 1024.3
20260503184148 52 294 2.6 5.2 0.00 0.00 0.00 29 1024.6
20260503183644 53 224 3.5 5.2 0.00 0.00 0.00 27 1024.4
20260503183142 53 220 5.2 6.1 0.00 0.00 0.00 28 1024.6
20260503182640 53 290 4.3 5.2 0.00 0.00 0.00 28 1024.8
20260503182139 53 278 2.6 5.2 0.00 0.00 0.00 28 1024.6
20260503181635 53 250 0.9 2.6 0.00 0.00 0.00 29 1024.6
20260503181132 52 244 1.7 2.6 0.00 0.00 0.00 29 1024.5
20260503180629 51 230 2.6 9.6 0.00 0.00 0.00 29 1024.6
20260503180127 52 264 0.9 3.5 0.00 0.00 0.00 30 1025.0
20260503175623 51 319 4.3 6.1 0.00 0.00 0.00 30 1025.0
20260503175120 51 288 2.6 5.2 0.00 0.00 0.00 31 1024.8
20260503174617 51 254 0.9 2.6 0.00 0.00 0.00 30 1025.0
20260503174114 50 257 1.7 7.8 0.00 0.00 0.00 31 1025.2
20260503173609 50 254 2.6 8.7 0.00 0.00 0.00 30 1025.2
20260503173106 50 266 1.7 7.0 0.00 0.00 0.00 30 1025.3
20260503172603 50 312 1.7 5.2 0.00 0.00 0.00 31 1025.2
20260503172100 50 242 2.6 7.8 0.00 0.00 0.00 29 1025.6
20260503171556 50 301 5.2 7.8 0.00 0.00 0.00 29 1025.4
20260503171054 50 256 1.7 7.0 0.00 0.00 0.00 30 1025.4
20260503170550 49 250 1.7 5.2 0.00 0.00 0.00 30 1025.4
20260503150943 45 311 2.6 12.2 0.00 0.00 0.00 38 1025.3
20260503150439 45 271 6.1 11.3 0.00 0.00 0.00 37 1025.8
20260503131332 43 257 1.7 2.6 0.00 0.00 0.00 37 1026.1
20260503130830 43 269 1.7 2.6 0.00 0.00 0.00 37 1025.8
20260503130327 43 248 0.0 5.2 0.00 0.00 0.00 37 1026.0
20260503110721 42 245 5.2 7.0 0.00 0.00 0.00 36 1025.3
20260503110218 43 228 2.6 6.1 0.00 0.00 0.00 36 1025.2
20260503100144 41 237 6.1 9.6 0.00 0.00 0.00 39 1025.3
20260503081533 43 248 0.9 7.8 0.00 0.00 0.00 41 1025.7
20260503081030 42 204 3.5 5.2 0.00 0.00 0.00 43 1026.0
20260503080526 42 250 6.1 7.8 0.00 0.00 0.00 42 1026.0
20260503072500 43 211 5.2 7.8 0.00 0.00 0.00 42 1026.6
20260503071957 43 231 3.5 5.2 0.00 0.00 0.00 43 1026.5
20260503071454 42 262 5.2 6.1 0.00 0.00 0.00 42 1026.6
20260503070949 42 234 1.7 5.2 0.00 0.00 0.00 43 1026.6
20260503070447 43 250 0.0 5.2 0.00 0.00 0.00 42 1026.8
20260503054900 41 227 1.7 2.6 0.00 0.00 0.00 31 1027.1
20260503054356 42 231 1.7 2.6 0.00 0.00 0.00 31 1026.9
20260503053854 41 243 2.6 3.5 0.00 0.00 0.00 31 1026.8
20260503053352 42 224 1.7 3.5 0.00 0.00 0.00 34 1026.9
20260503052848 41 217 1.7 2.6 0.00 0.00 0.00 31 1026.5
20260503052345 42 225 2.6 3.5 0.00 0.00 0.00 31 1026.9
20260503051841 42 218 1.7 3.5 0.00 0.00 0.00 31 1026.8
20260503051338 42 202 3.5 3.5 0.00 0.00 0.00 31 1026.5
20260503050835 42 193 2.6 3.5 0.00 0.00 0.00 31 1026.6
20260503050331 41 222 1.7 3.5 0.00 0.00 0.00 31 1026.5
20260503045829 41 204 2.6 3.5 0.00 0.00 0.00 30 1026.8
20260503045326 40 222 1.7 3.5 0.00 0.00 0.00 32 1026.6
20260503044822 40 215 1.7 2.6 0.00 0.00 0.00 36 1026.6
20260503044320 39 204 2.6 3.5 0.00 0.00 0.00 34 1026.8
20260503043817 37 232 0.9 2.6 0.00 0.00 0.00 38 1026.9
20260503043314 37 208 0.9 3.5 0.00 0.00 0.00 36 1026.5
20260503042809 37 213 2.6 2.6 0.00 0.00 0.00 39 1026.8
20260503042307 36 213 2.6 2.6 0.00 0.00 0.00 40 1026.8
20260503041802 36 218 1.7 2.6 0.00 0.00 0.00 44 1026.5
20260503041300 36 211 2.6 2.6 0.00 0.00 0.00 45 1026.8
20260503040758 36 204 2.6 2.6 0.00 0.00 0.00 45 1026.8
20260503040255 36 201 2.6 2.6 0.00 0.00 0.00 43 1026.6
20260503035752 36 203 2.6 2.6 0.00 0.00 0.00 47 1026.5
20260503035249 37 208 2.6 2.6 0.00 0.00 0.00 44 1026.5
20260503034746 36 216 1.7 2.6 0.00 0.00 0.00 45 1026.5
20260503034243 37 201 1.7 2.6 0.00 0.00 0.00 45 1026.5
20260503033741 37 202 2.6 2.6 0.00 0.00 0.00 39 1026.6
20260503033238 37 206 2.6 2.6 0.00 0.00 0.00 41 1026.6
20260503032736 38 205 2.6 3.5 0.00 0.00 0.00 40 1026.6
20260503032235 38 202 2.6 2.6 0.00 0.00 0.00 38 1026.5
20260503031731 38 208 2.6 2.6 0.00 0.00 0.00 36 1026.5
20260503031229 38 205 2.6 2.6 0.00 0.00 0.00 38 1026.5
20260503030725 38 206 3.5 3.5 0.00 0.00 0.00 35 1026.8
20260503030222 38 201 2.6 2.6 0.00 0.00 0.00 40 1026.8
20260503025719 39 204 2.6 2.6 0.00 0.00 0.00 38 1026.6
20260503025216 39 202 2.6 2.6 0.00 0.00 0.00 34 1026.5
20260503024713 40 207 2.6 2.6 0.00 0.00 0.00 37 1026.8
20260503024210 40 211 2.6 2.6 0.00 0.00 0.00 32 1026.5
20260503023707 41 210 2.6 2.6 0.00 0.00 0.00 39 1026.8
20260503023204 41 222 1.7 2.6 0.00 0.00 0.00 34 1026.8
20260503022700 41 219 2.6 2.6 0.00 0.00 0.00 35 1026.6
20260503022159 41 200 1.7 2.6 0.00 0.00 0.00 35 1026.5
20260503021656 40 211 1.7 2.6 0.00 0.00 0.00 39 1026.5
20260503021153 40 208 1.7 2.6 0.00 0.00 0.00 37 1026.6
20260503020650 40 214 1.7 2.6 0.00 0.00 0.00 42 1026.4
20260503020148 40 221 1.7 1.7 0.00 0.00 0.00 42 1026.2
20260503015644 40 211 1.7 2.6 0.00 0.00 0.00 33 1026.4
20260503015141 41 210 2.6 2.6 0.00 0.00 0.00 33 1026.2
20260503014637 41 220 1.7 2.6 0.00 0.00 0.00 36 1026.1
20260503014135 42 217 1.7 2.6 0.00 0.00 0.00 40 1026.4
20260503013632 42 213 1.7 2.6 0.00 0.00 0.00 36 1026.2
20260503013130 43 216 1.7 2.6 0.00 0.00 0.00 31 1026.0
20260503012627 44 224 1.7 1.7 0.00 0.00 0.00 33 1026.1
20260503012124 43 229 1.7 2.6 0.00 0.00 0.00 31 1026.1
20260503011620 43 235 0.9 1.7 0.00 0.00 0.00 38 1026.1
20260503011118 44 227 1.7 1.7 0.00 0.00 0.00 35 1026.0
20260503010614 45 271 1.7 2.6 0.00 0.00 0.00 27 1026.0
20260503010111 48 244 0.9 0.9 0.00 0.00 0.00 31 1026.1
20260503005608 49 67 3.5 3.5 0.00 0.00 0.00 23 1026.0
20260503005106 48 53 1.7 2.6 0.00 0.00 0.00 23 1026.0
20260503004601 48 241 0.0 1.7 0.00 0.00 0.00 33 1026.1
20260503004100 48 253 0.0 1.7 0.00 0.00 0.00 26 1025.7
20260503003556 49 263 0.0 0.9 0.00 0.00 0.00 26 1025.8
20260503003053 49 256 0.0 1.7 0.00 0.00 0.00 28 1025.8
20260503002550 50 242 0.9 2.6 0.00 0.00 0.00 24 1026.0
20260503002047 50 265 0.0 1.7 0.00 0.00 0.00 24 1026.1
20260503001543 51 77 1.7 2.6 0.00 0.00 0.00 24 1026.1
20260503001041 51 258 0.0 1.7 0.00 0.00 0.00 23 1026.4
20260503000538 51 83 1.7 7.0 0.00 0.00 0.00 21 1025.8
20260503000035 52 183 0.9 1.7 0.00 0.00 0.00 22 1026.2
20260502235531 52 208 0.9 1.7 0.00 0.00 0.00 25 1026.0
20260502235030 51 276 1.7 2.6 0.00 0.00 0.00 22 1026.0
20260502234525 52 345 2.6 6.1 0.00 0.00 0.00 22 1026.1
20260502234023 53 225 3.5 5.2 0.00 0.00 0.00 22 1026.2
20260502233524 53 239 1.7 3.5 0.00 0.00 0.00 22 1026.1
20260502233021 52 342 0.9 2.6 0.00 0.00 0.00 22 1026.2
20260502232517 53 143 2.6 3.5 0.00 0.00 0.00 25 1026.2
20260502232014 53 59 2.6 5.2 0.00 0.00 0.00 23 1026.0
20260502231511 52 262 0.9 5.2 0.00 0.00 0.00 24 1026.2
20260502231009 51 296 0.0 3.5 0.00 0.00 0.00 26 1026.4
20260502230507 52 62 2.6 7.0 0.00 0.00 0.00 25 1026.2
20260502230006 51 315 2.6 3.5 0.00 0.00 0.00 29 1026.1
20260502225501 51 337 1.7 3.5 0.00 0.00 0.00 26 1026.2
20260502224958 51 305 0.9 1.7 0.00 0.00 0.00 25 1026.0
20260502224454 53 305 1.7 2.6 0.00 0.00 0.00 26 1026.1
20260502223951 53 305 3.5 6.1 0.00 0.00 0.00 25 1026.2
20260502223449 53 290 3.5 6.1 0.00 0.00 0.00 26 1026.4
20260502222947 51 256 0.9 5.2 0.00 0.00 0.00 24 1026.2
20260502222444 51 135 5.2 7.8 0.00 0.00 0.00 27 1026.4
20260502221939 52 258 0.0 1.7 0.00 0.00 0.00 28 1026.4
20260502221436 51 254 0.0 0.9 0.00 0.00 0.00 31 1026.2